Date String (YYYY-MM-DD hh:mm:ss) UTC,Instrument flags,Ambient pressure (hPa),Sample flow (lpm),Bypass flow (lpm),Sample temperature (°C),Ambient temperature (°C),ASC tube jacket temperature (°C),LED temperature (°C),Box temperature (°C),Sample RH (%),Span deviation,Mass concentration (μg/m³),Mass concentration (μg/m³),Mass concentration (μg/m³)
DateTimeUTC,F1_M11,P_M11,Q1_M11,Q2_M11,T1_M11,T2_M11,T3_M11,T4_M11,T5_M11,U1_M11,ZSPAN_M11,X0_M11,X2_M11,X1_M11
2022-01-24 14:00:00,,0822.1,5.00,0.00,22.5,21.8,00.0,31.5,24.2,09.6,0000.0,0006.16,0003.45,0003.26
2022-01-24 14:01:00,,0822.1,4.99,0.00,22.5,21.8,00.0,31.5,24.2,09.7,0000.0,0006.97,0003.45,0003.27
2022-01-24 14:02:00,,0822.1,5.01,0.00,22.5,21.8,00.0,31.5,24.2,09.7,0000.0,0006.38,0003.48,0003.30
2022-01-24 14:03:00,,0822.1,5.00,0.00,22.5,21.8,00.0,31.5,24.2,09.7,0000.0,0006.06,0003.48,0003.31
2022-01-24 14:04:00,,0822.1,5.03,0.00,22.4,21.7,00.0,31.4,24.2,09.7,0000.0,0006.17,0003.50,0003.32
2022-01-24 14:05:00,,0822.1,5.00,0.00,22.4,21.7,00.0,31.4,24.2,09.7,0000.0,0006.26,0003.51,0003.33
2022-01-24 14:06:00,,0822.1,5.00,0.00,22.4,21.7,00.0,31.4,24.2,09.6,0000.0,0006.16,0003.49,0003.32
2022-01-24 14:07:00,,0822.2,4.99,0.00,22.4,21.7,00.0,31.4,24.1,09.4,0000.0,0005.98,0003.44,0003.28
2022-01-24 14:08:00,,0822.2,4.99,0.00,22.4,21.7,00.0,31.4,24.2,09.5,0000.0,0005.92,0003.41,0003.26
2022-01-24 14:09:00,,0822.2,5.01,0.00,22.4,21.7,00.0,31.4,24.1,09.6,0000.0,0005.82,0003.40,0003.24
2022-01-24 14:10:00,,0822.2,5.00,0.00,22.4,21.7,00.0,31.4,24.2,09.6,0000.0,0005.89,0003.41,0003.23
2022-01-24 14:11:00,,0822.2,5.00,0.00,22.5,22.2,00.0,31.4,24.3,09.6,0000.0,0005.29,0003.40,0003.23
2022-01-24 14:12:00,,0822.3,5.00,0.00,22.6,22.9,00.0,31.5,24.5,09.6,0000.0,0004.83,0003.43,0003.23
2022-01-24 14:13:00,,0822.2,5.00,0.00,22.7,23.1,00.0,31.5,24.7,09.5,0000.0,0004.81,0003.41,0003.22
2022-01-24 14:14:00,,0822.2,4.99,0.00,22.7,23.0,00.0,31.5,24.7,09.4,0000.0,0004.78,0003.40,0003.20
2022-01-24 14:15:00,,0822.2,5.01,0.00,22.7,22.8,00.0,31.5,24.6,09.4,0000.0,0004.65,0003.38,0003.19
2022-01-24 14:16:00,,0822.2,5.01,0.00,22.7,22.7,00.0,31.5,24.6,09.4,0000.0,0004.54,0003.35,0003.16
2022-01-24 14:17:00,,0822.3,5.00,0.00,22.7,22.5,00.0,31.6,24.6,09.4,0000.0,0004.47,0003.32,0003.14
2022-01-24 14:18:00,,0822.3,5.00,0.00,22.7,22.4,00.0,31.6,24.6,09.4,0000.0,0004.46,0003.31,0003.13
2022-01-24 14:19:00,,0822.3,5.00,0.00,22.7,22.3,00.0,31.6,24.5,09.4,0000.0,0004.40,0003.27,0003.08
2022-01-24 14:20:00,,0822.3,5.00,0.00,22.7,22.2,00.0,31.6,24.5,09.5,0000.0,0004.25,0003.24,0003.02
2022-01-24 14:21:00,,0822.3,5.00,0.00,22.6,22.1,00.0,31.6,24.4,09.6,0000.0,0004.18,0003.23,0003.00
2022-01-24 14:22:00,,0822.3,5.00,0.00,22.6,22.1,00.0,31.6,24.3,09.7,0000.0,0004.24,0003.21,0002.98
2022-01-24 14:23:00,,0822.3,5.00,0.00,22.6,22.0,00.0,31.6,24.3,09.8,0000.0,0004.22,0003.19,0002.96
2022-01-24 14:24:00,,0822.4,5.00,0.00,22.6,22.0,00.0,31.6,24.3,09.9,0000.0,0004.32,0003.23,0003.01
2022-01-24 14:25:00,,0822.4,4.99,0.00,22.5,21.9,00.0,31.5,24.3,10.0,0000.0,0004.44,0003.29,0003.08
2022-01-24 14:26:00,,0822.4,5.00,0.00,22.5,21.9,00.0,31.5,24.3,10.0,0000.0,0004.54,0003.34,0003.14
2022-01-24 14:27:00,,0822.4,5.00,0.00,22.5,21.9,00.0,31.5,24.2,10.0,0000.0,0004.77,0003.43,0003.20
2022-01-24 14:28:00,,0822.4,5.00,0.00,22.5,21.8,00.0,31.5,24.2,10.1,0000.0,0005.32,0003.52,0003.26
2022-01-24 14:29:00,,0822.5,5.00,0.00,22.5,21.8,00.0,31.5,24.2,10.1,0000.0,0005.79,0003.61,0003.34
2022-01-24 14:30:00,,0822.5,4.99,0.00,22.4,21.8,00.0,31.5,24.2,10.1,0000.0,0006.15,0003.74,0003.45
2022-01-24 14:31:00,,0822.4,5.00,0.00,22.4,21.8,00.0,31.5,24.1,10.2,0000.0,0006.33,0003.85,0003.57
2022-01-24 14:32:00,,0822.5,5.01,0.00,22.4,21.8,00.0,31.5,24.1,10.2,0000.0,0006.82,0003.93,0003.66
2022-01-24 14:33:00,,0822.4,5.00,0.00,22.4,21.8,00.0,31.5,24.1,10.2,0000.0,0007.62,0004.02,0003.74
2022-01-24 14:34:00,,0822.5,5.00,0.00,22.4,21.8,00.0,31.4,24.1,10.2,0000.0,0007.58,0004.06,0003.78
2022-01-24 14:35:00,,0822.5,5.00,0.00,22.4,21.7,00.0,31.4,24.1,10.2,0000.0,0007.61,0004.09,0003.81
2022-01-24 14:36:00,,0822.5,4.99,0.00,22.4,21.7,00.0,31.4,24.1,10.2,0000.0,0007.59,0004.09,0003.84
2022-01-24 14:37:00,,0822.5,5.00,0.00,22.4,21.7,00.0,31.4,24.1,10.2,0000.0,0007.71,0004.10,0003.85
2022-01-24 14:38:00,,0822.5,5.01,0.00,22.4,21.7,00.0,31.4,24.1,10.2,0000.0,0007.73,0004.10,0003.87
2022-01-24 14:39:00,,0822.5,5.01,0.00,22.4,21.7,00.0,31.4,24.1,10.2,0000.0,0008.05,0004.09,0003.88
2022-01-24 14:40:00,,0822.5,5.01,0.00,22.4,21.7,00.0,31.4,24.1,10.2,0000.0,0008.28,0004.10,0003.87
2022-01-24 14:41:00,,0822.5,5.00,0.00,22.3,21.7,00.0,31.4,24.1,10.2,0000.0,0008.54,0004.08,0003.86
2022-01-24 14:42:00,,0822.6,5.00,0.00,22.3,21.7,00.0,31.4,24.1,10.1,0000.0,0008.90,0004.05,0003.83
2022-01-24 14:43:00,,0822.6,4.99,0.00,22.4,22.0,00.0,31.4,24.1,10.1,0000.0,0008.55,0003.99,0003.77
2022-01-24 14:44:00,,0822.7,5.01,0.00,22.5,22.8,00.0,31.4,24.4,09.9,0000.0,0008.01,0003.92,0003.72
2022-01-24 14:45:00,,0822.7,5.01,0.00,22.7,23.5,00.0,31.5,24.7,09.8,0000.0,0008.09,0003.86,0003.65
2022-01-24 14:46:00,,0822.7,5.00,0.00,22.8,23.5,00.0,31.5,24.8,09.8,0000.0,0008.62,0003.77,0003.57
2022-01-24 14:47:00,,0822.7,5.00,0.00,22.8,23.3,00.0,31.5,24.8,09.7,0000.0,0008.86,0003.71,0003.51
2022-01-24 14:48:00,,0822.7,4.99,0.00,22.8,23.1,00.0,31.6,24.8,09.7,0000.0,0009.01,0003.64,0003.45
2022-01-24 14:49:00,,0822.7,5.00,0.00,22.8,22.9,00.0,31.6,24.7,09.7,0000.0,0009.32,0003.58,0003.37
2022-01-24 14:50:00,,0822.7,5.01,0.00,22.8,22.8,00.0,31.6,24.7,09.7,0000.0,0008.63,0003.50,0003.29
2022-01-24 14:51:00,,0822.7,5.00,0.00,22.8,22.7,00.0,31.6,24.7,09.7,0000.0,0008.22,0003.43,0003.24
2022-01-24 14:52:00,,0822.7,5.00,0.00,22.8,22.6,00.0,31.6,24.7,09.7,0000.0,0007.86,0003.44,0003.25
2022-01-24 14:53:00,,0822.9,5.00,0.00,22.8,22.5,00.0,31.7,24.7,09.7,0000.0,0007.44,0003.41,0003.23
2022-01-24 14:54:00,,0822.8,5.00,0.00,22.8,22.4,00.0,31.7,24.7,09.6,0000.0,0007.44,0003.39,0003.20
2022-01-24 14:55:00,,0822.8,5.00,0.00,22.8,22.4,00.0,31.7,24.7,09.7,0000.0,0007.46,0003.40,0003.20
2022-01-24 14:56:00,,0822.9,5.00,0.00,22.8,22.4,00.0,31.7,24.7,09.6,0000.0,0007.36,0003.41,0003.22
2022-01-24 14:57:00,,0822.9,5.00,0.00,22.9,22.3,00.0,31.7,24.7,09.6,0000.0,0006.30,0003.43,0003.24
2022-01-24 14:58:00,,0822.9,5.00,0.00,22.9,22.3,00.0,31.7,24.7,09.5,0000.0,0005.71,0003.44,0003.24
2022-01-24 14:59:00,,0822.9,5.00,0.00,22.9,22.3,00.0,31.7,24.7,09.6,0000.0,0005.28,0003.45,0003.25
